Weather History for Lowell, ID

Change the Weather History Date:

Wednesday, May 15, 2013

  Actual Average Record
Temperature  
Mean Temperature 56 °F -  
Max Temperature 71 °F 65 °F 91 °F (2006)
Min Temperature 42 °F 42 °F 37 °F (2004)
Degree Days  
Heating Degree Days 8    
Growing Degree Days 6 (Base 50)    
Moisture  
Dew Point 44 °F    
Average Humidity 71    
Maximum Humidity 97    
Minimum Humidity 38    
Precipitation  
Precipitation 0.00 in - - ()
Sea Level Pressure  
Sea Level Pressure 30.01 in    
Wind  
Wind Speed 2 mph (NNE)    
Max Wind Speed 9 mph    
Max Gust Speed 16 mph    
Averages and records for this station are not official NWS values.
T = Trace of Precipitation, MM = Missing Value Source: NWS Daily Summary

Daily Weather History Graph

Daily Weather History Graph

Search for Another Location

Airport:

Trip Planner

Search our weather history database for the weather conditions in past years. The results will help you decide how hot, cold, wet, or windy it might be!

Date:

Astronomy

May. 15, 2013 Rise Set
Actual Time 6:09 AM MDT 9:08 PM MDT
Civil Twilight 5:34 AM MDT 9:44 PM MDT
Nautical Twilight 4:48 AM MDT 10:29 PM MDT
Astronomical Twilight 3:54 AM MDT 11:24 PM MDT
Moon 10:52 AM MDT (5/15) 12:55 AM MDT (5/15)
Length of Visible Light 16h 10m
Length of Day
14h 59m
Waxing Crescent, 27% of the Moon is Illuminated
May 15
Waxing Crescent
May 17
First Quarter
May 24
Full
May 31
Last Quarter
Jun 8
New

Hourly Weather History & Observations

Time (MDT) Temp. Windchill Dew Point Humidity Pressure Visibility Wind Dir Wind Speed Gust Speed Precip Events Conditions
12:52 AM 46.9 °F - 44.1 °F 90% 30.10 in - North 3.5 mph - N/A   Unknown
1:52 AM 46.0 °F - 44.1 °F 93% 30.11 in - Calm Calm - N/A   Unknown
2:52 AM 45.0 °F 43.5 °F 43.0 °F 93% 30.11 in - North 3.5 mph - N/A   Unknown
3:52 AM 44.1 °F - 42.1 °F 93% 30.11 in - Calm Calm - N/A   Unknown
4:52 AM 43.0 °F 41.3 °F 42.1 °F 97% 30.11 in - North 3.5 mph - N/A   Unknown
5:52 AM 42.1 °F 40.2 °F 41.0 °F 96% 30.12 in - North 3.5 mph - N/A   Unknown
6:52 AM 42.1 °F 39.2 °F 39.9 °F 92% 30.11 in - NNW 4.6 mph - N/A   Unknown
7:52 AM 44.1 °F - 41.0 °F 89% 30.12 in - Calm Calm - N/A   Unknown
8:52 AM 46.9 °F - 42.1 °F 83% 30.11 in - Calm Calm - N/A   Unknown
9:52 AM 53.1 °F - 41.0 °F 64% 30.08 in - Calm Calm - N/A   Unknown
10:52 AM 57.0 °F - 41.0 °F 55% 30.05 in - Calm Calm - N/A   Unknown
11:52 AM 59.0 °F - 42.1 °F 53% 30.01 in - Calm Calm - N/A   Unknown
12:52 PM 63.0 °F - 42.1 °F 46% 29.98 in - Calm Calm - N/A   Unknown
1:52 PM 64.0 °F - 44.1 °F 48% 29.95 in - South 9.2 mph 16.1 mph N/A   Unknown
2:52 PM 64.9 °F - 46.0 °F 50% 29.94 in - SSE 6.9 mph - N/A   Unknown
3:52 PM 68.0 °F - 44.1 °F 42% 29.91 in - SSE 5.8 mph - N/A   Unknown
4:52 PM 71.1 °F - 45.0 °F 39% 29.89 in - Variable 4.6 mph - N/A   Unknown
5:52 PM 70.0 °F - 43.0 °F 38% 29.89 in - South 5.8 mph - N/A   Unknown
6:52 PM 63.0 °F - 45.0 °F 52% 29.89 in - Calm Calm - N/A   Unknown
7:52 PM 60.1 °F - 48.0 °F 64% 29.89 in - Calm Calm - N/A   Unknown
8:52 PM 55.9 °F - 48.0 °F 75% 29.90 in - Calm Calm - N/A   Unknown
9:52 PM 53.1 °F - 48.0 °F 83% 29.91 in - Calm Calm - N/A   Unknown
10:52 PM 51.1 °F - 46.9 °F 86% 29.93 in - Calm Calm - N/A   Unknown
11:52 PM 50.0 °F - 46.9 °F 89% 29.94 in - Calm Calm - N/A   Unknown